[[{"header":{"parameterUnit":"m.s-1","parameterCategory":1,"la1":30.2991,"la2":30.254,"lo1":-89.0895,"lo2":-89.0444,"dy":0.0017,"dx":0.0017,"nx":28,"ny":28,"refTime":"2024-06-08T21:00:00:Z","depth":0,"parameterNumber":2,"parameterNumberName":"U-component_of_WINDS"},"data":[0,0,0,0,0,0,0,0,0,0,0,0,0,0,0,0,0,0,0,0,0,0,0,0,0,0,0,0,0,0,0,0,0,0,0,0,0,0,0,0,0,0,0,0,0,0,0,0,0,0,0,0,0,0,0,0,0,0,2.6054,2.6056,0,2.6203,2.6204,2.6206,2.6221,2.6219,2.6218,2.6216,2.6372,2.6378,2.6383,0,0,0,0,0,0,0,0,0,0,0,0,0,2.5788,2.5793,2.6054,2.6056,2.6058,2.6203,2.6205,2.6207,2.6221,2.6219,2.6217,2.6215,2.6371,2.6377,2.6384,0,0,0,0,0,0,0,0,0,0,0,0,0,2.5917,2.5795,2.6054,2.6082,2.6086,2.6202,2.6205,2.6207,2.6221,2.6219,2.6217,2.6214,2.6368,2.6377,2.6385,2.6484,0,0,2.6411,2.6414,0,0,0,0,0,0,0,0,2.591,2.5927,2.6076,2.6081,2.6085,2.6191,2.6168,2.63,2.6222,2.617,2.6216,2.6213,2.6314,2.6327,2.636,2.6491,2.6498,2.6411,2.6416,2.642,2.6422,0,0,0,0,0,0,0,2.5901,2.592,2.6113,2.6079,2.6084,2.6089,2.6105,2.6193,2.6254,2.6175,2.6176,2.6193,2.6316,2.6352,2.6364,2.65,2.6411,2.6419,2.6424,2.6427,2.672,2.6723,0,0,0,0,0,0,2.5886,2.5913,2.6108,2.6118,2.599,2.6096,2.6114,2.6159,2.6253,2.6265,2.6195,2.6193,2.6339,2.6354,2.6369,2.6491,2.642,2.6428,2.6433,2.6718,2.6721,2.6724,0,0,0,0,0,0,2.588,2.5903,2.6102,2.6016,2.6041,2.6103,2.6154,2.6164,2.6199,2.6268,2.6279,2.622,2.6337,2.6357,2.6455,2.6497,2.6432,2.6439,2.6714,2.6719,2.6722,2.6735,0,0,0,0,0,0,2.5872,2.5901,2.5938,2.6016,2.6046,2.6184,2.6157,2.6168,2.6213,2.6212,2.6294,2.6306,2.6337,2.6442,2.6463,2.6507,2.6446,2.6711,2.6716,2.6721,2.6731,2.6739,2.6746,0,0,0,0,0,2.5863,2.5936,2.5939,2.5963,2.6093,2.6186,2.6203,2.6237,2.6216,2.6255,2.6299,2.6303,2.6489,2.6452,2.6476,2.6523,2.6708,2.6715,2.6721,2.6728,2.6737,2.6745,0,0,0,0,0,0,2.5861,2.5947,2.5951,2.6052,2.6112,2.6188,2.6237,2.6246,2.6313,2.631,2.635,2.6368,2.6464,2.6504,2.6461,2.6624,2.6597,2.6608,2.6594,2.6604,2.6611,2.6599,2.6453,0,0,0,0,0,2.5873,2.594,2.6012,2.6093,2.6123,2.6175,2.6217,2.6238,2.6302,2.6327,2.6379,2.6442,2.6515,2.6562,2.6632,2.6737,2.6756,2.6782,2.6789,2.6795,2.6803,2.6862,2.6875,2.6744,2.6744,2.6744,0,0,2.5897,2.5952,2.5992,2.6095,2.6143,2.6213,2.6196,2.6271,2.6324,2.6339,2.6433,2.6474,2.6547,2.6649,2.6696,2.6685,2.6844,2.6802,2.6806,2.6812,2.687,2.6882,2.6893,2.6748,2.6748,2.6747,0,0,2.5976,2.6025,2.6098,2.6147,2.6221,2.6255,2.6273,2.6349,2.6376,2.6472,2.6485,2.6549,2.6674,2.6725,2.6768,2.6869,2.6875,2.6891,2.6929,2.6986,2.6996,2.7005,2.7041,2.7054,2.69,2.69,2.69,0,2.5997,2.6102,2.6135,2.621,2.6255,2.6271,2.6347,2.6394,2.6487,2.6519,2.6504,2.6661,2.6712,2.6825,2.685,2.6884,2.6907,2.6881,2.6992,2.7001,2.7011,2.7045,2.7059,2.6902,2.6901,2.6901,2.6901,0,2.6124,2.6196,2.6247,2.6336,2.6387,2.6462,2.6508,2.6557,2.6574,2.661,2.6708,2.6769,2.6853,2.6882,2.69,2.6999,2.699,2.6983,2.6957,2.7024,2.7057,2.707,2.6903,2.6903,2.6903,2.6902,0,0,2.6204,2.6312,2.633,2.637,2.6454,2.6511,2.6588,2.6668,2.6709,2.6774,2.6839,2.6945,2.6939,2.6988,2.7012,2.7062,2.7138,2.705,2.7052,2.7063,2.7252,2.7255,2.7269,2.7143,2.7146,2.7148,2.7245,0,2.6293,2.6427,2.646,2.6576,2.6644,2.6662,2.6729,2.6788,2.6825,2.6889,2.6931,2.7004,2.6992,2.7021,2.7072,2.7118,2.7176,2.7112,2.7205,2.7208,2.7184,2.7287,2.729,2.7379,2.7258,2.7261,2.7262,0,2.6413,2.6479,2.66,2.6676,2.6706,2.6765,2.6842,2.6903,2.6971,2.6995,2.7049,2.7069,2.7151,2.7121,2.7235,2.719,2.7231,2.726,2.7264,2.7273,2.7238,2.7298,2.7408,2.742,2.7283,2.7281,2.728,0,2.6458,2.6578,2.6667,2.6701,2.6791,2.6833,2.6872,2.6938,2.6985,2.7053,2.7084,2.7162,2.7204,2.7264,2.7305,2.7279,2.7415,2.7389,2.7437,2.7436,2.7464,2.7461,2.7581,2.7492,2.7492,2.7492,2.7492,0,2.6552,2.6626,2.6688,2.6742,2.6826,2.6865,2.6948,2.6988,2.7047,2.7111,2.7132,2.7192,2.7242,2.7309,2.7341,2.7431,2.745,2.7472,2.7479,2.7469,2.7466,2.7495,2.749,2.7496,2.7495,2.7494,2.7493,0,2.6616,2.6661,2.6758,2.6836,2.6858,2.6916,2.6983,2.7037,2.7075,2.7156,2.7177,2.7237,2.7317,2.7364,2.7465,2.7487,2.7586,2.7591,2.7562,2.7565,2.761,2.7605,2.7752,2.7773,2.7671,2.7672,2.7673,0,2.6672,2.6729,2.6813,2.6857,2.6897,2.6967,2.7014,2.7056,2.7105,2.7188,2.7233,2.7314,2.7381,2.7508,2.7562,2.764,2.7646,2.7693,2.7658,2.7646,2.7646,2.7641,2.7647,2.7698,2.7699,2.7699,2.77,0,2.6767,2.6786,2.6853,2.6929,2.6985,2.7047,2.7108,2.7143,2.7196,2.725,2.7332,2.7383,2.7487,2.7567,2.765,2.7693,2.7705,2.7711,2.7726,2.7715,2.7695,2.7706,2.7577,2.7707,2.7706,2.7705,2.7705,2.7705,2.6828,2.6879,2.6947,2.7021,2.7072,2.7129,2.7184,2.7229,2.7297,2.7383,2.7405,2.7491,2.756,2.7671,2.7716,2.7785,2.7777,2.7799,2.7805,2.7809,2.781,2.7685,2.78,2.78,2.78,2.78,2.78,0,2.6923,2.6967,2.7035,2.712,2.718,2.7186,2.7255,2.7304,2.7379,2.7442,2.7507,2.7601,2.768,2.774,2.7821,2.7864,2.7872,2.7884,2.788,2.789,2.7813,2.7791,2.7876,2.7876,2.7876,2.7876,2.7876,2.7876,2.6978,2.7066,2.7094,2.7208,2.7253,2.7335,2.7374,2.7428,2.7478,2.7582,2.7647,2.7685,2.7748,2.7833,2.7906,2.7922,2.795,2.7961,2.7978,2.7904,2.7896,2.7888,2.7867,2.7967,2.7967,2.8049,2.805,2.8051]},{"header":{"parameterUnit":"m.s-1","parameterCategory":1,"la1":30.2991,"la2":30.254,"lo1":-89.0895,"lo2":-89.0444,"dy":0.0017,"dx":0.0017,"nx":28,"ny":28,"refTime":"2024-06-08T21:00:00:Z","depth":0,"parameterNumber":3,"parameterNumberName":"V-component_of_WINDS"},"data":[0,0,0,0,0,0,0,0,0,0,0,0,0,0,0,0,0,0,0,0,0,0,0,0,0,0,0,0,0,0,0,0,0,0,0,0,0,0,0,0,0,0,0,0,0,0,0,0,0,0,0,0,0,0,0,0,0,0,3.4991,3.4993,0,3.5185,3.5187,3.5189,3.519,3.5188,3.5185,3.5183,3.5377,3.5384,3.5392,0,0,0,0,0,0,0,0,0,0,0,0,0,3.461,3.4617,3.499,3.4993,3.4995,3.5185,3.5187,3.519,3.5191,3.5187,3.5184,3.5182,3.5374,3.5383,3.5392,0,0,0,0,0,0,0,0,0,0,0,0,0,3.4787,3.462,3.499,3.5019,3.5023,3.5184,3.5187,3.5191,3.5191,3.5187,3.5184,3.518,3.5371,3.5382,3.5393,3.5538,0,0,3.5428,3.5433,0,0,0,0,0,0,0,0,3.4777,3.4801,3.5012,3.5017,3.5022,3.516,3.5125,3.5307,3.5192,3.5127,3.5183,3.5178,3.5307,3.5324,3.5368,3.5547,3.5555,3.5429,3.5436,3.544,3.5444,0,0,0,0,0,0,0,3.4765,3.4793,3.5067,3.5015,3.5021,3.5019,3.504,3.5159,3.5236,3.5133,3.5133,3.5156,3.5309,3.5357,3.5373,3.5558,3.5429,3.5439,3.5445,3.545,3.5856,3.586,0,0,0,0,0,0,3.4748,3.4783,3.5061,3.5073,3.4888,3.5028,3.5052,3.5119,3.5234,3.5248,3.5159,3.5156,3.534,3.536,3.5379,3.5551,3.544,3.5451,3.5457,3.5852,3.5857,3.5862,0,0,0,0,0,0,3.474,3.4773,3.5053,3.4928,3.4964,3.5039,3.5114,3.5125,3.5173,3.5255,3.5268,3.5195,3.5338,3.5364,3.5497,3.5558,3.5456,3.5466,3.5848,3.5854,3.586,3.5898,0,0,0,0,0,0,3.4729,3.477,3.4828,3.4929,3.497,3.5171,3.5118,3.5131,3.5193,3.519,3.5291,3.5305,3.5337,3.548,3.5508,3.5571,3.5475,3.5843,3.585,3.5858,3.5891,3.5904,3.5915,0,0,0,0,0,3.4715,3.4832,3.4831,3.4865,3.5045,3.5174,3.5197,3.5234,3.5198,3.5255,3.5306,3.5301,3.5547,3.5494,3.5525,3.5593,3.5839,3.5848,3.5857,3.5886,3.5902,3.5915,0,0,0,0,0,0,3.4735,3.4846,3.4846,3.5,3.5077,3.5174,3.5248,3.525,3.5339,3.5332,3.5371,3.5394,3.5526,3.5573,3.5512,3.5734,3.5688,3.5704,3.5699,3.5715,3.5727,3.5711,3.5484,0,0,0,0,0,3.4757,3.4856,3.4946,3.5072,3.5111,3.5172,3.523,3.5251,3.5333,3.5365,3.5427,3.5504,3.5598,3.5659,3.5751,3.5898,3.5917,3.5959,3.5971,3.5981,3.5993,3.6068,3.6086,3.5892,3.5892,3.5892,0,0,3.4804,3.4877,3.4936,3.5078,3.5141,3.5237,3.52,3.5306,3.5377,3.5381,3.551,3.5557,3.5645,3.5784,3.5849,3.5828,3.6051,3.5993,3.5999,3.6007,3.6079,3.6097,3.6114,3.5898,3.5897,3.5896,0,0,3.4939,3.5006,3.5115,3.5178,3.5273,3.5312,3.5338,3.5434,3.5465,3.5596,3.5598,3.5682,3.5845,3.5906,3.5958,3.6109,3.6105,3.6137,3.62,3.6272,3.6287,3.6301,3.635,3.6367,3.615,3.615,3.615,0,3.4984,3.5133,3.5171,3.5275,3.5335,3.5342,3.545,3.5509,3.5629,3.5668,3.5643,3.5843,3.5904,3.6054,3.609,3.6134,3.6161,3.6126,3.6283,3.6297,3.631,3.6356,3.6375,3.6153,3.6153,3.6152,3.6152,0,3.5182,3.5284,3.5361,3.5475,3.5544,3.565,3.5699,3.5763,3.5776,3.5816,3.5945,3.6017,3.6121,3.6158,3.6173,3.6309,3.6292,3.6275,3.6228,3.6331,3.6375,3.6393,3.6157,3.6156,3.6155,3.6155,0,0,3.5336,3.5467,3.5494,3.5543,3.5647,3.5725,3.5828,3.593,3.5981,3.6062,3.6147,3.6281,3.6264,3.6323,3.6344,3.6408,3.6515,3.6382,3.6384,3.64,3.6663,3.6673,3.6694,3.6514,3.6518,3.6521,3.6654,0,3.5478,3.5664,3.5698,3.5859,3.595,3.5956,3.6046,3.6116,3.6155,3.6236,3.6278,3.6371,3.6344,3.6379,3.6443,3.6489,3.6568,3.648,3.6589,3.6592,3.6564,3.6718,3.6731,3.6853,3.6672,3.6675,3.6677,0,3.5669,3.5754,3.5924,3.6009,3.6049,3.6129,3.6221,3.63,3.6377,3.6401,3.6464,3.6477,3.6579,3.6529,3.6668,3.6607,3.6653,3.6682,3.6687,3.6697,3.6639,3.6727,3.6893,3.691,3.6706,3.6703,3.6701,0,3.5758,3.5915,3.6035,3.6078,3.6182,3.6237,3.6282,3.6357,3.6413,3.6493,3.6529,3.662,3.6669,3.6736,3.677,3.6732,3.6905,3.6859,3.6923,3.6922,3.6958,3.6955,3.713,3.6993,3.6993,3.6993,3.6992,0,3.5911,3.6014,3.6076,3.615,3.6262,3.6298,3.6408,3.6452,3.6517,3.6596,3.6607,3.668,3.6722,3.68,3.6828,3.6935,3.6958,3.6976,3.6982,3.6974,3.6971,3.7003,3.6994,3.6997,3.6996,3.6995,3.6995,0,3.603,3.6077,3.6207,3.6294,3.6317,3.6396,3.6468,3.6538,3.6575,3.6674,3.67,3.6758,3.6849,3.6891,3.7005,3.7022,3.7143,3.7145,3.7117,3.7118,3.7178,3.7171,3.7378,3.7404,3.7253,3.7254,3.7256,0,3.6123,3.6202,3.6296,3.635,3.6397,3.6484,3.6541,3.6578,3.6636,3.6727,3.6784,3.6877,3.6952,3.7098,3.7148,3.7233,3.7234,3.73,3.7247,3.7234,3.7229,3.7223,3.7228,3.7309,3.7311,3.7312,3.7313,0,3.6282,3.63,3.6383,3.6473,3.6541,3.6613,3.6684,3.6726,3.6773,3.6837,3.6931,3.699,3.7104,3.7194,3.7281,3.7324,3.7324,3.7329,3.7348,3.7339,3.7318,3.7326,3.714,3.7324,3.7323,3.7322,3.7322,3.7321,3.6388,3.6456,3.6531,3.6622,3.6678,3.6742,3.681,3.6855,3.6935,3.7031,3.7047,3.7146,3.7215,3.7333,3.7378,3.7453,3.7437,3.7465,3.7472,3.7477,3.7478,3.7309,3.747,3.7469,3.7469,3.7469,3.7469,0,3.6543,3.6591,3.6674,3.6772,3.6841,3.6837,3.6913,3.6971,3.7058,3.7124,3.7197,3.7302,3.7387,3.7443,3.7528,3.7577,3.7579,3.7597,3.7593,3.7601,3.7491,3.7464,3.7594,3.7594,3.7594,3.7594,3.7594,3.7594,3.6632,3.6745,3.6771,3.6909,3.6956,3.7054,3.7097,3.7154,3.7206,3.7323,3.7394,3.743,3.749,3.7578,3.7654,3.7668,3.7697,3.7716,3.7728,3.7623,3.761,3.7597,3.7572,3.7723,3.7723,3.7832,3.7833,3.7834]}]]